Location: Cz?stochówka
(50.8142°N, 19.0915°E)
Time: 20:01:09
(UTC+00:00)

COSMO-SKYMED 1 - Pass Details

Date: 13 January 2026
Orbit: 577 x 579 km, 97.9° (Epoch: 13 February)

Event Time Altitude Azimuth Distance (km) Brightness Sun altitude
Rises 03:58:45 0° 162° (SSE) 2,789 6.2 -24.8°
Reaches altitude 10° 04:00:54 10° 161° (SSE) 1,894 5.3 -24.5°
Maximum altitude 04:05:00 82° 76° (ENE) 593 2.4 -23.8°
Enters shadow 04:05:14 78° 22° (NNE) 602 2.4 -23.8°
